| time (UTC) | temp C | wind direction | speed KPH | gust KPH | rain 1hr cm | rain 24hr cm | rain mn cm | humidity % | barometer mb |
| 20260507203006 | 11 | 165 | 1.6 | 3.2 | 0.00 | 0.00 | 0.00 | 74 | 1014.9 |
| 20260507201005 | 11 | 109 | 1.6 | 3.2 | 0.00 | 0.00 | 0.00 | 71 | 1014.6 |
| 20260507195506 | 11 | 9 | 0.0 | 0.0 | 0.00 | 0.00 | 0.00 | 70 | 1014.6 |
| 20260507194505 | 11 | 102 | 0.0 | 0.0 | 0.00 | 0.00 | 0.00 | 71 | 1014.6 |
| 20260507194006 | 11 | 57 | 0.0 | 3.2 | 0.00 | 0.00 | 0.00 | 71 | 1014.6 |
| 20260507193506 | 11 | 116 | 0.0 | 3.2 | 0.00 | 0.00 | 0.00 | 72 | 1014.6 |
| 20260507193005 | 11 | 96 | 0.0 | 0.0 | 0.00 | 0.00 | 0.00 | 72 | 1014.6 |
| 20260507192505 | 11 | 355 | 0.0 | 0.0 | 0.00 | 0.00 | 0.00 | 72 | 1014.6 |
| 20260507192005 | 12 | 31 | 0.0 | 0.0 | 0.00 | 0.00 | 0.00 | 71 | 1014.2 |
| 20260507191505 | 12 | 172 | 0.0 | 0.0 | 0.00 | 0.00 | 0.00 | 71 | 1014.2 |
| 20260507191005 | 12 | 242 | 0.0 | 0.0 | 0.00 | 0.00 | 0.00 | 71 | 1014.2 |
| 20260507190505 | 12 | 282 | 0.0 | 0.0 | 0.00 | 0.00 | 0.00 | 71 | 1014.2 |
| 20260507190006 | 12 | 25 | 1.6 | 3.2 | 0.00 | 0.00 | 0.00 | 71 | 1014.2 |
| 20260507185505 | 12 | 147 | 0.0 | 3.2 | 0.00 | 0.00 | 0.00 | 70 | 1014.2 |
| 20260507185005 | 12 | 228 | 3.2 | 12.9 | 0.00 | 0.00 | 0.00 | 70 | 1014.4 |
| 20260507184505 | 12 | 245 | 3.2 | 12.9 | 0.00 | 0.00 | 0.00 | 70 | 1014.5 |
| 20260507184006 | 12 | 240 | 0.0 | 3.2 | 0.00 | 0.00 | 0.00 | 71 | 1014.2 |
| 20260507183505 | 12 | 307 | 0.0 | 3.2 | 0.00 | 0.00 | 0.00 | 70 | 1014.2 |
| 20260507183005 | 12 | 261 | 0.0 | 3.2 | 0.00 | 0.00 | 0.00 | 70 | 1014.2 |
| 20260507182506 | 12 | 276 | 0.0 | 3.2 | 0.00 | 0.00 | 0.00 | 70 | 1014.2 |
| 20260507182005 | 12 | 316 | 0.0 | 3.2 | 0.00 | 0.00 | 0.00 | 70 | 1014.2 |
| 20260507181505 | 12 | 314 | 0.0 | 3.2 | 0.00 | 0.00 | 0.00 | 70 | 1014.6 |
| 20260507181005 | 12 | 131 | 1.6 | 8.0 | 0.00 | 0.00 | 0.00 | 70 | 1014.2 |
| 20260507180505 | 12 | 220 | 3.2 | 8.0 | 0.00 | 0.00 | 0.00 | 70 | 1014.2 |
| 20260507180007 | 12 | 105 | 0.0 | 8.0 | 0.00 | 0.00 | 0.00 | 70 | 1014.2 |
| 20260507175005 | 12 | 47 | 1.6 | 3.2 | 0.00 | 0.00 | 0.00 | 70 | 1014.2 |
| 20260507174505 | 12 | 337 | 0.0 | 0.0 | 0.00 | 0.00 | 0.00 | 71 | 1014.2 |
| 20260507174005 | 12 | 215 | 0.0 | 0.0 | 0.00 | 0.00 | 0.00 | 72 | 1014.2 |
| 20260507173506 | 12 | 213 | 0.0 | 16.1 | 0.00 | 0.00 | 0.00 | 71 | 1014.6 |
| 20260507173005 | 12 | 229 | 8.0 | 16.1 | 0.00 | 0.00 | 0.00 | 71 | 1014.6 |
| 20260507172505 | 12 | 248 | 1.6 | 8.0 | 0.00 | 0.00 | 0.00 | 71 | 1014.2 |
| 20260507172005 | 12 | 246 | 3.2 | 8.0 | 0.00 | 0.00 | 0.00 | 70 | 1014.6 |
| 20260507171505 | 12 | 279 | 0.0 | 3.2 | 0.00 | 0.00 | 0.00 | 70 | 1014.6 |
| 20260507171005 | 12 | 253 | 1.6 | 16.1 | 0.00 | 0.00 | 0.00 | 70 | 1014.6 |
| 20260507170505 | 12 | 188 | 9.7 | 16.1 | 0.00 | 0.00 | 0.00 | 70 | 1014.6 |
| 20260507170006 | 12 | 193 | 1.6 | 12.9 | 0.00 | 0.00 | 0.00 | 70 | 1014.6 |
| 20260507165505 | 11 | 280 | 9.7 | 12.9 | 0.00 | 0.00 | 0.00 | 70 | 1014.6 |
| 20260507165005 | 11 | 242 | 4.8 | 8.0 | 0.00 | 0.00 | 0.00 | 70 | 1014.6 |
| 20260507164504 | 11 | 222 | 3.2 | 8.0 | 0.00 | 0.00 | 0.00 | 71 | 1014.6 |
| 20260507164005 | 11 | 175 | 3.2 | 8.0 | 0.00 | 0.00 | 0.00 | 71 | 1014.6 |
| 20260507163505 | 11 | 136 | 0.0 | 8.0 | 0.00 | 0.00 | 0.00 | 71 | 1014.9 |
| 20260507163005 | 11 | 187 | 3.2 | 12.9 | 0.00 | 0.00 | 0.00 | 71 | 1014.6 |
| 20260507162504 | 11 | 287 | 3.2 | 12.9 | 0.00 | 0.00 | 0.00 | 71 | 1014.9 |
| 20260507161006 | 11 | 183 | 4.8 | 8.0 | 0.00 | 0.00 | 0.00 | 72 | 1014.9 |
| 20260507160506 | 11 | 207 | 4.8 | 12.9 | 0.00 | 0.00 | 0.00 | 72 | 1014.6 |
| 20260507160005 | 11 | 220 | 9.7 | 16.1 | 0.00 | 0.00 | 0.00 | 72 | 1014.6 |
| 20260507155504 | 11 | 209 | 8.0 | 16.1 | 0.00 | 0.00 | 0.00 | 72 | 1014.6 |
| 20260507155005 | 11 | 185 | 6.4 | 12.9 | 0.00 | 0.00 | 0.00 | 72 | 1014.6 |
| 20260507154506 | 11 | 165 | 1.6 | 8.0 | 0.00 | 0.00 | 0.00 | 72 | 1014.7 |
| 20260507154006 | 11 | 331 | 4.8 | 16.1 | 0.00 | 0.00 | 0.00 | 71 | 1014.9 |
| 20260507153505 | 11 | 184 | 4.8 | 16.1 | 0.00 | 0.00 | 0.00 | 71 | 1014.9 |
| 20260507153005 | 11 | 241 | 3.2 | 8.0 | 0.00 | 0.00 | 0.00 | 71 | 1014.6 |
| 20260507152006 | 12 | 160 | 8.0 | 16.1 | 0.00 | 0.00 | 0.00 | 71 | 1014.6 |
| 20260507151504 | 12 | 280 | 9.7 | 16.1 | 0.00 | 0.00 | 0.00 | 71 | 1014.6 |
| 20260507151005 | 12 | 217 | 8.0 | 12.9 | 0.00 | 0.00 | 0.00 | 70 | 1014.6 |
| 20260507150506 | 12 | 254 | 3.2 | 8.0 | 0.00 | 0.00 | 0.00 | 71 | 1014.9 |
| 20260507150005 | 12 | 278 | 3.2 | 8.0 | 0.00 | 0.00 | 0.00 | 70 | 1014.6 |
| 20260507145505 | 12 | 354 | 4.8 | 16.1 | 0.00 | 0.00 | 0.00 | 70 | 1014.6 |
| 20260507145007 | 12 | 182 | 8.0 | 16.1 | 0.00 | 0.00 | 0.00 | 70 | 1014.9 |
| 20260507144505 | 12 | 290 | 4.8 | 16.1 | 0.00 | 0.00 | 0.00 | 70 | 1014.6 |
| 20260507144006 | 12 | 255 | 9.7 | 16.1 | 0.00 | 0.00 | 0.00 | 70 | 1014.9 |
| 20260507143505 | 13 | 205 | 3.2 | 16.1 | 0.00 | 0.00 | 0.00 | 69 | 1014.6 |
| 20260507142505 | 13 | 191 | 9.7 | 20.9 | 0.00 | 0.00 | 0.00 | 68 | 1014.9 |
| 20260507142005 | 13 | 201 | 12.9 | 20.9 | 0.00 | 0.00 | 0.00 | 68 | 1014.9 |
| 20260507141510 | 13 | 208 | 9.7 | 16.1 | 0.00 | 0.00 | 0.00 | 67 | 1014.9 |
| 20260507140505 | 13 | 260 | 8.0 | 16.1 | 0.00 | 0.00 | 0.00 | 67 | 1014.9 |
| 20260507135506 | 13 | 233 | 4.8 | 12.9 | 0.00 | 0.00 | 0.00 | 67 | 1014.9 |
| 20260507135005 | 13 | 307 | 1.6 | 8.0 | 0.00 | 0.00 | 0.00 | 68 | 1014.9 |
| 20260507134505 | 13 | 222 | 1.6 | 3.2 | 0.00 | 0.00 | 0.00 | 69 | 1014.9 |
| 20260507134006 | 13 | 233 | 1.6 | 12.9 | 0.00 | 0.00 | 0.00 | 67 | 1014.9 |
| 20260507133505 | 13 | 227 | 4.8 | 12.9 | 0.00 | 0.00 | 0.00 | 67 | 1015.2 |
| 20260507133006 | 13 | 220 | 9.7 | 16.1 | 0.00 | 0.00 | 0.00 | 66 | 1015.2 |
| 20260507132505 | 13 | 253 | 3.2 | 16.1 | 0.00 | 0.00 | 0.00 | 66 | 1015.0 |
| 20260507132005 | 13 | 6 | 1.6 | 3.2 | 0.00 | 0.00 | 0.00 | 66 | 1015.1 |
| 20260507131505 | 13 | 202 | 1.6 | 3.2 | 0.00 | 0.00 | 0.00 | 66 | 1015.2 |
| 20260507131005 | 13 | 247 | 1.6 | 3.2 | 0.00 | 0.00 | 0.00 | 65 | 1015.2 |
| 20260507130505 | 13 | 257 | 3.2 | 8.0 | 0.00 | 0.00 | 0.00 | 65 | 1015.2 |
| 20260507130005 | 14 | 201 | 4.8 | 8.0 | 0.00 | 0.00 | 0.00 | 64 | 1015.2 |
| 20260507125505 | 14 | 192 | 3.2 | 8.0 | 0.00 | 0.00 | 0.00 | 64 | 1014.9 |
| 20260507125006 | 14 | 41 | 3.2 | 8.0 | 0.00 | 0.00 | 0.00 | 65 | 1014.9 |
| 20260507124505 | 14 | 186 | 4.8 | 8.0 | 0.00 | 0.00 | 0.00 | 63 | 1015.2 |
| 20260507123505 | 14 | 232 | 3.2 | 16.1 | 0.00 | 0.00 | 0.00 | 61 | 1015.2 |
| 20260507122507 | 14 | 77 | 1.6 | 12.9 | 0.00 | 0.00 | 0.00 | 62 | 1015.2 |
| 20260507121505 | 13 | 263 | 8.0 | 16.1 | 0.00 | 0.00 | 0.00 | 61 | 1015.2 |
| 20260507121011 | 13 | 202 | 3.2 | 16.1 | 0.00 | 0.00 | 0.00 | 60 | 1015.2 |
| 20260507120505 | 13 | 224 | 12.9 | 16.1 | 0.00 | 0.00 | 0.00 | 61 | 1015.2 |
| 20260507120006 | 13 | 212 | 8.0 | 16.1 | 0.00 | 0.00 | 0.00 | 62 | 1015.2 |
| 20260507115505 | 13 | 316 | 4.8 | 12.9 | 0.00 | 0.00 | 0.00 | 64 | 1015.2 |
| 20260507115005 | 13 | 23 | 4.8 | 8.0 | 0.00 | 0.00 | 0.00 | 65 | 1015.2 |
| 20260507114005 | 12 | 122 | 1.6 | 8.0 | 0.00 | 0.00 | 0.00 | 67 | 1015.2 |
| 20260507113005 | 12 | 193 | 4.8 | 8.0 | 0.00 | 0.00 | 0.00 | 67 | 1015.2 |
| 20260507112505 | 11 | 23 | 1.6 | 3.2 | 0.00 | 0.00 | 0.00 | 68 | 1015.2 |
| 20260507112005 | 11 | 211 | 1.6 | 3.2 | 0.00 | 0.00 | 0.00 | 68 | 1015.2 |
| 20260507111507 | 11 | 22 | 0.0 | 3.2 | 0.00 | 0.00 | 0.00 | 69 | 1015.6 |
| 20260507110005 | 11 | 269 | 1.6 | 3.2 | 0.00 | 0.00 | 0.00 | 69 | 1015.6 |
| 20260507105516 | 11 | 323 | 1.6 | 3.2 | 0.00 | 0.00 | 0.00 | 71 | 1015.6 |
| 20260507105009 | 11 | 157 | 0.0 | 3.2 | 0.00 | 0.00 | 0.00 | 70 | 1015.9 |
| 20260507104506 | 11 | 13 | 1.6 | 3.2 | 0.00 | 0.00 | 0.00 | 70 | 1015.9 |
| 20260507104005 | 11 | 13 | 1.6 | 3.2 | 0.00 | 0.00 | 0.00 | 70 | 1015.9 |
| 20260507103509 | 12 | 179 | 8.0 | 12.9 | 0.00 | 0.00 | 0.00 | 69 | 1015.7 |
| 20260507103005 | 12 | 182 | 9.7 | 12.9 | 0.00 | 0.00 | 0.00 | 68 | 1015.6 |
| 20260507102506 | 12 | 182 | 9.7 | 12.9 | 0.00 | 0.00 | 0.00 | 68 | 1015.6 |
| 20260507102006 | 12 | 182 | 8.0 | 16.1 | 0.00 | 0.00 | 0.00 | 68 | 1015.6 |
| 20260507101507 | 12 | 286 | 6.4 | 16.1 | 0.00 | 0.00 | 0.00 | 67 | 1015.6 |
| 20260507101005 | 11 | 15 | 3.2 | 8.0 | 0.00 | 0.00 | 0.00 | 67 | 1015.6 |
| 20260507100508 | 11 | 12 | 1.6 | 8.0 | 0.00 | 0.00 | 0.00 | 66 | 1015.9 |
| 20260507100005 | 11 | 253 | 0.0 | 16.1 | 0.00 | 0.00 | 0.00 | 68 | 1015.6 |
| 20260507095505 | 11 | 76 | 12.9 | 16.1 | 0.00 | 0.00 | 0.00 | 67 | 1015.6 |
| 20260507094005 | 11 | 6 | 0.0 | 12.9 | 0.00 | 0.00 | 0.00 | 69 | 1016.3 |
| 20260507093005 | 11 | 265 | 0.0 | 3.2 | 0.00 | 0.00 | 0.00 | 72 | 1015.6 |
| 20260507092019 | 11 | 338 | 1.6 | 3.2 | 0.00 | 0.00 | 0.00 | 71 | 1015.9 |
| 20260507091006 | 10 | 6 | 0.0 | 12.9 | 0.00 | 0.00 | 0.00 | 70 | 1015.9 |
| 20260507090006 | 10 | 303 | 1.6 | 12.9 | 0.00 | 0.00 | 0.00 | 71 | 1015.9 |
| 20260507085510 | 10 | 70 | 1.6 | 3.2 | 0.00 | 0.00 | 0.00 | 71 | 1016.1 |
| 20260507084007 | 9 | 161 | 1.6 | 3.2 | 0.00 | 0.00 | 0.00 | 72 | 1016.3 |
| 20260507083513 | 9 | 93 | 1.6 | 8.0 | 0.00 | 0.00 | 0.00 | 71 | 1016.3 |
| 20260507083005 | 8 | 37 | 3.2 | 8.0 | 0.00 | 0.00 | 0.00 | 72 | 1016.3 |
| 20260507082506 | 8 | 240 | 1.6 | 8.0 | 0.00 | 0.00 | 0.00 | 74 | 1015.9 |
| 20260507082005 | 8 | 287 | 1.6 | 8.0 | 0.00 | 0.00 | 0.00 | 75 | 1016.3 |
| 20260507081505 | 8 | 353 | 1.6 | 8.0 | 0.00 | 0.00 | 0.00 | 75 | 1015.9 |
| 20260507081006 | 8 | 72 | 0.0 | 3.2 | 0.00 | 0.00 | 0.00 | 75 | 1016.3 |
| 20260507080505 | 8 | 71 | 0.0 | 3.2 | 0.00 | 0.00 | 0.00 | 75 | 1016.3 |
| 20260507080005 | 8 | 324 | 0.0 | 3.2 | 0.00 | 0.00 | 0.00 | 76 | 1016.3 |
| 20260507075005 | 7 | 85 | 1.6 | 3.2 | 0.00 | 0.00 | 0.00 | 76 | 1015.9 |
| 20260507074504 | 7 | 357 | 0.0 | 3.2 | 0.00 | 0.00 | 0.00 | 77 | 1016.3 |
| 20260507073505 | 7 | 88 | 4.8 | 8.0 | 0.00 | 0.00 | 0.00 | 77 | 1016.3 |
| 20260507073005 | 7 | 58 | 1.6 | 3.2 | 0.00 | 0.00 | 0.00 | 78 | 1015.9 |
| 20260507072506 | 7 | 305 | 1.6 | 8.0 | 0.00 | 0.00 | 0.00 | 78 | 1015.9 |
| 20260507072005 | 7 | 236 | 1.6 | 8.0 | 0.00 | 0.00 | 0.00 | 79 | 1016.3 |
| 20260507071505 | 6 | 93 | 3.2 | 3.2 | 0.00 | 0.00 | 0.00 | 79 | 1015.9 |
| 20260507070505 | 6 | 281 | 3.2 | 8.0 | 0.00 | 0.00 | 0.00 | 80 | 1016.3 |
| 20260507070010 | 6 | 308 | 1.6 | 3.2 | 0.00 | 0.00 | 0.00 | 80 | 1015.9 |
| 20260507065506 | 6 | 258 | 0.0 | 3.2 | 0.00 | 0.00 | 0.00 | 81 | 1015.9 |
| 20260507065006 | 6 | 256 | 1.6 | 3.2 | 0.00 | 0.00 | 0.00 | 81 | 1015.9 |
| 20260507064005 | 6 | 50 | 0.0 | 3.2 | 0.00 | 0.00 | 0.00 | 81 | 1015.9 |
| 20260507063506 | 6 | 324 | 0.0 | 3.2 | 0.00 | 0.00 | 0.00 | 81 | 1015.9 |
| 20260507063005 | 6 | 290 | 0.0 | 3.2 | 0.00 | 0.00 | 0.00 | 81 | 1016.3 |
| 20260507062505 | 6 | 46 | 0.0 | 3.2 | 0.00 | 0.00 | 0.00 | 81 | 1015.9 |
| 20260507062005 | 6 | 196 | 0.0 | 0.0 | 0.00 | 0.00 | 0.00 | 82 | 1015.9 |
| 20260507061504 | 6 | 63 | 0.0 | 0.0 | 0.00 | 0.00 | 0.00 | 82 | 1015.9 |
| 20260507061005 | 6 | 52 | 0.0 | 0.0 | 0.00 | 0.00 | 0.00 | 82 | 1015.9 |
| 20260507060505 | 6 | 267 | 0.0 | 0.0 | 0.00 | 0.00 | 0.00 | 82 | 1015.9 |
| 20260507060005 | 6 | 244 | 0.0 | 3.2 | 0.00 | 0.00 | 0.00 | 82 | 1015.9 |
| 20260507055504 | 6 | 115 | 0.0 | 3.2 | 0.00 | 0.00 | 0.00 | 82 | 1015.9 |
| 20260507055005 | 6 | 111 | 0.0 | 0.0 | 0.00 | 0.00 | 0.00 | 81 | 1015.9 |
| 20260507054505 | 6 | 120 | 0.0 | 0.0 | 0.00 | 0.00 | 0.00 | 81 | 1015.9 |
| 20260507054005 | 6 | 45 | 0.0 | 3.2 | 0.00 | 0.00 | 0.00 | 81 | 1015.9 |
| 20260507053506 | 5 | 301 | 0.0 | 3.2 | 0.00 | 0.00 | 0.00 | 82 | 1015.9 |
| 20260507053005 | 5 | 350 | 0.0 | 0.0 | 0.00 | 0.00 | 0.00 | 85 | 1015.9 |
| 20260507052005 | 4 | 330 | 0.0 | 0.0 | 0.00 | 0.00 | 0.00 | 87 | 1015.9 |
| 20260507051505 | 3 | 322 | 0.0 | 0.0 | 0.00 | 0.00 | 0.00 | 88 | 1015.6 |
| 20260507051005 | 3 | 12 | 0.0 | 0.0 | 0.00 | 0.00 | 0.00 | 89 | 1015.9 |
| 20260507050006 | 2 | 269 | 0.0 | 3.2 | 0.00 | 0.00 | 0.00 | 90 | 1015.6 |
| 20260507045005 | 2 | 219 | 0.0 | 0.0 | 0.00 | 0.00 | 0.00 | 91 | 1015.9 |
| 20260507044505 | 2 | 133 | 0.0 | 0.0 | 0.00 | 0.00 | 0.00 | 91 | 1015.9 |
| 20260507044005 | 2 | 209 | 0.0 | 0.0 | 0.00 | 0.00 | 0.00 | 91 | 1015.9 |
| 20260507043505 | 2 | 195 | 0.0 | 0.0 | 0.00 | 0.00 | 0.00 | 91 | 1015.9 |
| 20260507043006 | 2 | 188 | 0.0 | 0.0 | 0.00 | 0.00 | 0.00 | 90 | 1015.9 |
| 20260507042505 | 1 | 239 | 0.0 | 0.0 | 0.00 | 0.00 | 0.00 | 90 | 1015.9 |
| 20260507042005 | 1 | 220 | 0.0 | 0.0 | 0.00 | 0.00 | 0.00 | 90 | 1015.9 |
| 20260507041505 | 1 | 159 | 0.0 | 0.0 | 0.00 | 0.00 | 0.00 | 90 | 1015.6 |
| 20260507041005 | 1 | 286 | 0.0 | 0.0 | 0.00 | 0.00 | 0.00 | 90 | 1015.9 |
| 20260507040505 | 1 | 179 | 0.0 | 0.0 | 0.00 | 0.00 | 0.00 | 90 | 1015.9 |
| 20260507040005 | 1 | 198 | 0.0 | 0.0 | 0.00 | 0.00 | 0.00 | 90 | 1015.9 |
| 20260507035504 | 2 | 169 | 0.0 | 0.0 | 0.00 | 0.00 | 0.00 | 90 | 1015.9 |
| 20260507035006 | 2 | 226 | 0.0 | 0.0 | 0.00 | 0.00 | 0.00 | 89 | 1015.9 |
| 20260507034505 | 2 | 215 | 0.0 | 0.0 | 0.00 | 0.00 | 0.00 | 89 | 1015.9 |
| 20260507034005 | 2 | 268 | 0.0 | 0.0 | 0.00 | 0.00 | 0.00 | 89 | 1015.9 |
| 20260507033505 | 2 | 296 | 0.0 | 0.0 | 0.00 | 0.00 | 0.00 | 89 | 1015.9 |
| 20260507033005 | 2 | 352 | 0.0 | 0.0 | 0.00 | 0.00 | 0.00 | 89 | 1015.9 |
| 20260507032505 | 2 | 127 | 0.0 | 0.0 | 0.00 | 0.00 | 0.00 | 89 | 1015.9 |
| 20260507032005 | 2 | 324 | 0.0 | 0.0 | 0.00 | 0.00 | 0.00 | 89 | 1015.9 |
| 20260507031505 | 2 | 336 | 0.0 | 0.0 | 0.00 | 0.00 | 0.00 | 89 | 1015.9 |
| 20260507031005 | 2 | 286 | 0.0 | 0.0 | 0.00 | 0.00 | 0.00 | 88 | 1015.9 |
| 20260507030505 | 2 | 17 | 0.0 | 0.0 | 0.00 | 0.00 | 0.00 | 88 | 1015.9 |
| 20260507030005 | 2 | 35 | 0.0 | 0.0 | 0.00 | 0.00 | 0.00 | 88 | 1015.9 |
| 20260507025505 | 2 | 69 | 0.0 | 0.0 | 0.00 | 0.00 | 0.00 | 88 | 1015.9 |
| 20260507025005 | 2 | 71 | 0.0 | 0.0 | 0.00 | 0.00 | 0.00 | 88 | 1015.9 |
| 20260507024505 | 2 | 341 | 0.0 | 0.0 | 0.00 | 0.00 | 0.00 | 88 | 1016.0 |
| 20260507024005 | 2 | 27 | 0.0 | 0.0 | 0.00 | 0.00 | 0.00 | 88 | 1016.2 |
| 20260507023505 | 2 | 242 | 0.0 | 0.0 | 0.00 | 0.00 | 0.00 | 87 | 1015.9 |
| 20260507023005 | 2 | 264 | 0.0 | 0.0 | 0.00 | 0.00 | 0.00 | 87 | 1015.9 |
| 20260507022505 | 2 | 283 | 0.0 | 0.0 | 0.00 | 0.00 | 0.00 | 87 | 1015.9 |
| 20260507022006 | 2 | 300 | 0.0 | 0.0 | 0.00 | 0.00 | 0.00 | 87 | 1016.3 |
| 20260507021505 | 2 | 279 | 0.0 | 0.0 | 0.00 | 0.00 | 0.00 | 86 | 1016.3 |
| 20260507021005 | 2 | 294 | 0.0 | 0.0 | 0.00 | 0.00 | 0.00 | 86 | 1016.3 |
| 20260507020505 | 2 | 185 | 0.0 | 0.0 | 0.00 | 0.00 | 0.00 | 86 | 1016.3 |
| 20260507020005 | 2 | 77 | 0.0 | 0.0 | 0.00 | 0.00 | 0.00 | 85 | 1015.9 |
| 20260507015505 | 2 | 181 | 0.0 | 0.0 | 0.00 | 0.00 | 0.00 | 85 | 1015.9 |
| 20260507015005 | 2 | 308 | 0.0 | 0.0 | 0.00 | 0.00 | 0.00 | 85 | 1015.9 |
| 20260507014505 | 2 | 240 | 0.0 | 0.0 | 0.00 | 0.00 | 0.00 | 85 | 1015.9 |
| 20260507014005 | 2 | 244 | 0.0 | 0.0 | 0.00 | 0.00 | 0.00 | 85 | 1016.3 |
| 20260507013506 | 2 | 278 | 0.0 | 0.0 | 0.00 | 0.00 | 0.00 | 84 | 1015.9 |
| 20260507013005 | 2 | 197 | 0.0 | 0.0 | 0.00 | 0.00 | 0.00 | 84 | 1015.9 |
| 20260507012505 | 2 | 207 | 0.0 | 0.0 | 0.00 | 0.00 | 0.00 | 84 | 1016.3 |
| 20260507012005 | 2 | 204 | 0.0 | 0.0 | 0.00 | 0.00 | 0.00 | 83 | 1016.3 |
| 20260507011006 | 3 | 110 | 0.0 | 0.0 | 0.00 | 0.00 | 0.00 | 83 | 1016.3 |
| 20260507010505 | 3 | 166 | 0.0 | 0.0 | 0.00 | 0.00 | 0.00 | 82 | 1016.3 |
| 20260507010005 | 3 | 227 | 0.0 | 0.0 | 0.00 | 0.00 | 0.00 | 81 | 1016.3 |
| 20260507005505 | 3 | 212 | 0.0 | 0.0 | 0.00 | 0.00 | 0.00 | 81 | 1016.3 |
| 20260507005006 | 3 | 290 | 0.0 | 3.2 | 0.00 | 0.00 | 0.00 | 80 | 1016.3 |
| 20260507004505 | 3 | 171 | 1.6 | 3.2 | 0.00 | 0.00 | 0.00 | 80 | 1016.3 |
| 20260507004005 | 3 | 240 | 0.0 | 3.2 | 0.00 | 0.00 | 0.00 | 80 | 1016.3 |
| 20260507003506 | 3 | 222 | 0.0 | 3.2 | 0.00 | 0.00 | 0.00 | 80 | 1016.3 |
| 20260507003005 | 3 | 197 | 0.0 | 3.2 | 0.00 | 0.00 | 0.00 | 80 | 1016.3 |
| 20260507002505 | 3 | 243 | 1.6 | 3.2 | 0.00 | 0.00 | 0.00 | 81 | 1016.3 |
| 20260507002006 | 3 | 221 | 0.0 | 3.2 | 0.00 | 0.00 | 0.00 | 82 | 1016.3 |
| 20260507001505 | 3 | 242 | 1.6 | 3.2 | 0.00 | 0.00 | 0.00 | 83 | 1016.3 |
| 20260507001005 | 3 | 111 | 0.0 | 3.2 | 0.00 | 0.00 | 0.00 | 83 | 1016.3 |
| 20260507000505 | 3 | 183 | 0.0 | 3.2 | 0.00 | 0.00 | 0.00 | 83 | 1016.3 |
| 20260507000005 | 3 | 334 | 0.0 | 3.2 | 0.00 | 0.00 | 0.00 | 83 | 1016.3 |
| 20260506235506 | 3 | 191 | 1.6 | 3.2 | 0.00 | 0.00 | 0.00 | 84 | 1016.3 |
| 20260506235005 | 3 | 198 | 0.0 | 3.2 | 0.00 | 0.00 | 0.00 | 84 | 1016.3 |
| 20260506234505 | 3 | 234 | 0.0 | 3.2 | 0.00 | 0.00 | 0.00 | 83 | 1016.1 |
| 20260506234005 | 3 | 287 | 0.0 | 0.0 | 0.00 | 0.00 | 0.00 | 83 | 1016.1 |
| 20260506233505 | 3 | 329 | 0.0 | 0.0 | 0.00 | 0.00 | 0.00 | 83 | 1016.3 |
| 20260506233006 | 3 | 341 | 0.0 | 0.0 | 0.00 | 0.00 | 0.00 | 83 | 1016.3 |
| 20260506232505 | 3 | 87 | 0.0 | 0.0 | 0.00 | 0.00 | 0.00 | 83 | 1016.3 |
| 20260506232005 | 3 | 76 | 0.0 | 0.0 | 0.00 | 0.00 | 0.00 | 82 | 1016.3 |
| 20260506231505 | 3 | 21 | 0.0 | 0.0 | 0.00 | 0.00 | 0.00 | 82 | 1016.3 |
| 20260506230505 | 3 | 209 | 0.0 | 0.0 | 0.00 | 0.00 | 0.00 | 82 | 1016.3 |
| 20260506230005 | 3 | 242 | 0.0 | 0.0 | 0.00 | 0.00 | 0.00 | 82 | 1016.3 |
| 20260506225505 | 3 | 236 | 0.0 | 0.0 | 0.00 | 0.00 | 0.00 | 81 | 1016.3 |
| 20260506224505 | 3 | 199 | 0.0 | 3.2 | 0.00 | 0.00 | 0.00 | 81 | 1016.3 |
| 20260506224005 | 3 | 219 | 0.0 | 3.2 | 0.00 | 0.00 | 0.00 | 81 | 1016.6 |
| 20260506223005 | 3 | 193 | 1.6 | 3.2 | 0.00 | 0.00 | 0.00 | 81 | 1016.3 |
| 20260506222505 | 3 | 192 | 0.0 | 3.2 | 0.00 | 0.00 | 0.00 | 81 | 1016.3 |
| 20260506222005 | 3 | 227 | 0.0 | 3.2 | 0.00 | 0.00 | 0.00 | 82 | 1016.6 |
| 20260506221006 | 3 | 203 | 0.0 | 0.0 | 0.00 | 0.00 | 0.00 | 80 | 1016.3 |
| 20260506220505 | 4 | 232 | 0.0 | 0.0 | 0.00 | 0.00 | 0.00 | 79 | 1016.3 |
| 20260506220005 | 4 | 235 | 0.0 | 0.0 | 0.00 | 0.00 | 0.00 | 78 | 1016.6 |
| 20260506215508 | 4 | 227 | 0.0 | 0.0 | 0.00 | 0.00 | 0.00 | 78 | 1016.6 |
| 20260506215006 | 4 | 223 | 0.0 | 0.0 | 0.00 | 0.00 | 0.00 | 78 | 1016.6 |
| 20260506214005 | 4 | 288 | 0.0 | 0.0 | 0.00 | 0.00 | 0.00 | 77 | 1016.6 |
| 20260506213505 | 4 | 234 | 0.0 | 0.0 | 0.00 | 0.00 | 0.00 | 77 | 1016.6 |
| 20260506212006 | 4 | 305 | 0.0 | 0.0 | 0.00 | 0.00 | 0.00 | 77 | 1016.6 |
| 20260506211505 | 4 | 8 | 0.0 | 0.0 | 0.00 | 0.00 | 0.00 | 77 | 1016.5 |
| 20260506210505 | 5 | 156 | 0.0 | 0.0 | 0.00 | 0.00 | 0.00 | 76 | 1016.6 |
| 20260506210008 | 5 | 173 | 0.0 | 0.0 | 0.00 | 0.00 | 0.00 | 76 | 1016.6 |
| 20260506204508 | 5 | 190 | 0.0 | 0.0 | 0.00 | 0.00 | 0.00 | 74 | 1016.3 |
| 20260506204005 | 5 | 163 | 0.0 | 0.0 | 0.00 | 0.00 | 0.00 | 74 | 1016.3 |
| 20260506203514 | 5 | 163 | 0.0 | 0.0 | 0.00 | 0.00 | 0.00 | 74 | 1016.3 |